Hyannis, MA

9:00 PM EST on December 12, 2017 (GMT -0500)
Barnstable Municipal-Boardman-Polando Field

Weather History for KHYA - April, 2012

Change the Weather History Date:

Tuesday, April 3, 2012

  Actual Average Record
Temperature  
Mean Temperature 42 °F -  
Max Temperature 51 °F 50 °F 77 °F (1967)
Min Temperature 32 °F 35 °F 22 °F (1957)
Degree Days  
Heating Degree Days 23    
Moisture  
Dew Point 21 °F    
Average Humidity 48    
Maximum Humidity 82    
Minimum Humidity 27    
Precipitation  
Precipitation 0.00 in - - ()
Sea Level Pressure  
Sea Level Pressure 29.74 in    
Wind  
Wind Speed 10 mph (NW)    
Max Wind Speed 17 mph    
Max Gust Speed 30 mph    
Visibility 10 miles    
Events      
Averages and records for this station are not official NWS values.
T = Trace of Precipitation, MM = Missing Value Source: NWS Daily Summary

Daily Weather History Graph

Daily Weather History Graph

Search for Another Location

Airport or City:

Trip Planner

Search our weather history database for the weather conditions in past years. The results will help you decide how hot, cold, wet, or windy it might be!

Date:

Astronomy

Apr. 03, 2012 Rise Set
Actual Time 6:19 AM EDT 7:09 PM EDT
Civil Twilight 5:51 AM EDT 7:37 PM EDT
Nautical Twilight 5:18 AM EDT 8:10 PM EDT
Astronomical Twilight 4:43 AM EDT 8:45 PM EDT
Moon 3:46 PM EDT (4/3) 4:09 AM EDT (4/3)
Length of Visible Light 13h 45m
Length of Day
12h 49m
Waxing Gibbous, 86% of the Moon is Illuminated
Apr 3
Waxing Gibbous
Apr 6
Full
Apr 13
Last Quarter
Apr 21
New
Apr 29
First Quarter

Hourly Weather History & Observations

Time (EDT) Temp. Windchill Dew Point Humidity Pressure Visibility Wind Dir Wind Speed Gust Speed Precip Events Conditions
12:56 AM 41.0 °F 33.9 °F 23.0 °F 49% 29.75 in 10.0 mi North 12.7 mph 17.3 mph N/A   Clear
1:56 AM 41.0 °F 34.7 °F 21.9 °F 47% 29.75 in 10.0 mi NNW 10.4 mph - N/A   Clear
2:56 AM 39.9 °F 34.5 °F 21.0 °F 47% 29.75 in 10.0 mi NNW 8.1 mph 17.3 mph N/A   Clear
3:56 AM 36.0 °F 30.3 °F 21.9 °F 57% 29.74 in 10.0 mi WNW 6.9 mph - N/A   Clear
4:56 AM 36.0 °F 30.3 °F 19.9 °F 52% 29.74 in 10.0 mi NW 6.9 mph - N/A   Clear
5:56 AM 35.6 °F 28.6 °F 19.4 °F 52% 29.75 in 10.0 mi NW 9.2 mph - N/A   Clear
6:56 AM 35.1 °F 29.3 °F 19.0 °F 52% 29.78 in 10.0 mi WNW 6.9 mph - N/A   Clear
7:56 AM 37.9 °F 30.5 °F 17.1 °F 43% 29.79 in 10.0 mi NW 11.5 mph - N/A   Clear
8:56 AM 41.0 °F 32.5 °F 17.1 °F 38% 29.79 in 10.0 mi NNW 17.3 mph 25.3 mph N/A   Clear
9:56 AM 43.0 °F 35.7 °F 19.0 °F 38% 29.78 in 10.0 mi North 15.0 mph 26.5 mph N/A   Clear
10:56 AM 43.0 °F 35.1 °F 18.0 °F 37% 29.77 in 10.0 mi North 17.3 mph 29.9 mph N/A   Clear
11:56 AM 44.1 °F 36.8 °F 19.0 °F 37% 29.75 in 10.0 mi North 16.1 mph 23.0 mph N/A   Clear
12:56 PM 46.0 °F 39.6 °F 18.0 °F 33% 29.75 in 10.0 mi NNW 15.0 mph 23.0 mph N/A   Clear
1:56 PM 46.9 °F - 19.9 °F 34% 29.74 in 10.0 mi North 9.2 mph 18.4 mph N/A   Clear
2:56 PM 46.9 °F - 19.0 °F 33% 29.73 in 10.0 mi Variable 6.9 mph 17.3 mph N/A   Clear
3:56 PM 50.0 °F - 17.1 °F 27% 29.72 in 10.0 mi North 11.5 mph 16.1 mph N/A   Clear
4:56 PM 50.0 °F - 17.1 °F 27% 29.71 in 10.0 mi NNE 8.1 mph - N/A   Clear
5:56 PM 50.0 °F - 17.1 °F 27% 29.71 in 10.0 mi WNW 4.6 mph - N/A   Clear
6:56 PM 44.1 °F 39.5 °F 27.0 °F 51% 29.72 in 10.0 mi SW 8.1 mph - N/A   Clear
7:56 PM 39.9 °F 35.1 °F 28.9 °F 65% 29.73 in 10.0 mi SW 6.9 mph - N/A   Clear
8:56 PM 37.9 °F 35.5 °F 28.9 °F 70% 29.74 in 10.0 mi WSW 3.5 mph - N/A   Clear
9:56 PM 39.0 °F - 30.0 °F 70% 29.73 in 10.0 mi Calm Calm - N/A   Clear
10:56 PM 34.0 °F - 28.0 °F 79% 29.72 in 10.0 mi Calm Calm - N/A   Clear
11:56 PM 32.0 °F - 27.0 °F 82% 29.72 in 10.0 mi Calm Calm - N/A   Clear